Location: Bílinka
(49.3579°N, 14.3767°E)
Time: 00:34:47
(UTC+00:00)

Cosmos 1763 Rocket - Pass Details

Date: 28 January 2023
Orbit: 733 x 778 km, 74.0° (Epoch: 30 March)

Event Time Altitude Azimuth Distance (km) Brightness Sun altitude
Rises 17:16:48 0° 341° (NNW) 3,244 6.8 -13.9°
Reaches altitude 10° 17:19:26 10° 351° (N) 2,307 6.0 -14.3°
Maximum altitude 17:24:08 33° 55° (NE) 1,262 4.1 -15.0°
Enters shadow 17:26:30 23° 100° (E) 1,584 4.6 -15.4°
